This demonstration page uses our WeatherBlox Daily Observations layout. Learn more.

Left ArrowRight Arrow

31.31129, -92.44514

Hourly Observations for October 3, 2022

Temp ( °F °C ) Dew Point ( °F °C ) Humidity (%) Winds ( mph kmh ) Pressure ( in mb ) Visibility ( mi km ) Precip ( " mm )
12:53 am 00:53 Clear 57 13.9 49 9.4 74 74 W 5 7 30.11 1020 10 16 0.00 0.00
1:53 am 01:53 Clear 55 12.8 49 9.4 80 80 W 3 6 30.11 1020 10 16 0.00 0.00
2:53 am 02:53 Clear 55 12.8 49 9.4 80 80 WNW 3 6 30.11 1020 10 16 0.00 0.00
3:53 am 03:53 Clear 54 12.2 51 10.6 90 90 Calm 30.09 1019 10 16 0.00 0.00
4:53 am 04:53 Clear 52 11.1 48 8.9 86 86 NW 3 6 30.10 1019 10 16 0.00 0.00
5:53 am 05:53 Clear 53 11.7 48 8.9 83 83 NW 3 6 30.11 1020 10 16 0.00 0.00
6:53 am 06:53 Clear 52 11.1 46 7.8 80 80 NNW 3 6 30.13 1020 10 16 0.00 0.00
7:53 am 07:53 Sunny 54 12.2 49 9.4 83 83 Calm 30.14 1021 10 16 0.00 0.00
8:53 am 08:53 Sunny 64 17.8 51 10.6 63 63 NE 5 7 30.15 1021 10 16 0.00 0.00
9:53 am 09:53 Sunny 71 21.7 52 11.1 51 51 E 5 7 30.16 1021 10 16 0.00 0.00
10:53 am 10:53 Sunny 76 24.4 52 11.1 43 43 ENE 5 7 30.16 1021 10 16 0.00 0.00
11:53 am 11:53 Sunny 79 26.1 51 10.6 38 38 Calm 30.14 1021 10 16 0.00 0.00
12:53 pm 12:53 Sunny 84 28.9 52 11.1 33 33 NNE 6 9 30.12 1020 10 16 0.00 0.00
1:53 pm 13:53 Sunny 85 29.4 49 9.4 29 29 NNE 9 15 30.09 1019 9 14 0.00 0.00
2:53 pm 14:53 Sunny 86 30 49 9.4 28 28 NNE 10 17 30.06 1018 8 13 0.00 0.00
3:53 pm 15:53 Sunny 86 30 49 9.4 28 28 NE 8 13 30.05 1018 10 16 0.00 0.00
4:53 pm 16:53 Sunny 85 29.4 49 9.4 29 29 N 9 15 30.04 1017 10 16 0.00 0.00
5:53 pm 17:53 Sunny 83 28.3 50 10 32 32 N 8 13 30.04 1017 9 14 0.00 0.00
6:53 pm 18:53 Sunny 77 25 52 11.1 42 42 N 3 6 30.06 1018 10 16 0.00 0.00
7:53 pm 19:53 Clear 70 21.1 55 12.8 59 59 NNE 5 7 30.07 1018 10 16 0.00 0.00
8:53 pm 20:53 Clear 67 19.4 55 12.8 66 66 NNE 5 7 30.09 1019 10 16 0.00 0.00
9:53 pm 21:53 Clear 63 17.2 54 12.2 72 72 NNE 6 9 30.09 1019 10 16 0.00 0.00
10:53 pm 22:53 Clear 67 19.4 53 11.7 61 61 NNE 3 6 30.10 1019 10 16 0.00 0.00
11:53 pm 23:53 Hazy 59 15 49 9.4 69 69 Calm 30.09 1019 6 10 0.00 0.00

Powered by AerisWeather